Temp
7 7 8 8 8 8 9 9 9 9 9 9 9 10 11 11 12 13 14 14 15 15 16 16 16 16 16 16 17 18 20 21 21 21 23 23 24 24 24 25 25 26 26 25 26
7 7 8 8 8 9 9 9 9 9 9 9 9 10 10 10 12 14 13 13 13 12 15 16 16 15 15 16 17 19 20 21 22 23 22 24 23 24 24 24 25 25 25 26 26
7 7 7 7 8 8 9 9 9 9 9 9 10 10 10 11 11 12 12 12 12 12 13 14 15 14 16 16 17 19 19 21 21 21 22 23 24 23 24 24 25 25 25 25 26
7 7 8 8 8 8 9 9 8 9 9 9 9 10 10 11 13 12 12 12 11 11 12 13 13 15 16 17 17 19 19 20 21 20 21 22 22 23 23 23 23 22 23 23 23
8 8 8 9 9 9 9 8 8 9 9 9 9 9 10 10 11 11 11 11 11 11 11 11 12 14 17 17 18 18 20 19 20 20 20 20 21 22 22 22 22 22 21 22 22
8 8 9 9 9 9 8 8 8 9 9 9 9 9 7 9 11 11 11 11 11 11 11 11 12 13 14 16 17 19 19 19 19 19 19 20 21 21 21 21 21 21 22 22 22
9 9 9 9 9 9 9 8 8 8 9 9 9 8 6 11 11 11 12 12 12 11 11 11 12 11 13 15 16 17 18 19 19 19 19 19 20 22 21 21 21 21 21 22 22
9 9 10 10 10 9 9 9 9 9 9 8 9 8 9 11 12 11 11 11 12 12 11 12 11 10 12 14 16 17 17 17 20 18 19 19 20 23 23 22 22 22 23 23 23
9 9 9 10 10 9 9 9 9 10 9 9 8 8 10 11 11 11 11 11 11 11 12 11 10 11 13 13 15 16 17 17 19 20 19 19 20 23 22 22 23 22 22 22 22
9 9 9 9 10 9 9 10 9 9 9 8 8 7 11 11 11 11 11 11 10 11 11 11 11 13 13 14 14 16 16 18 18 20 19 19 20 22 22 21 22 22 22 22 22
8 9 9 9 9 9 9 9 9 8 9 8 8 8 10 10 11 11 11 10 9 10 12 11 12 12 14 14 15 15 16 16 18 19 19 19 20 21 21 20 21 21 21 21 21
9 9 9 9 9 8 8 7 5 6 6 10 10 9 10 9 8 11 11 10 10 11 12 12 11 13 13 13 13 14 14 14 15 17 17 19 18 19 19 19 20 20 20 20 20
8 9 9 9 9 8 7 6 6 6 6 7 10 9 10 9 10 11 11 10 11 11 12 11 12 13 13 13 13 14 13 14 14 16 17 16 17 18 19 19 19 19 19 19 19
9 9 9 9 9 8 7 6 6 6 7 9 11 10 10 9 10 11 11 10 11 11 12 12 13 12 12 12 13 13 14 15 15 15 15 17 16 19 20 20 20 19 19 19 19
9 10 9 9 9 8 7 6 6 6 9 10 10 9 9 9 10 11 11 10 10 11 11 11 12 12 12 13 13 13 14 14 14 14 14 15 15 18 20 19 20 20 20 19 19
9 10 10 9 9 8 7 7 6 8 8 9 9 9 10 10 10 10 11 10 10 11 11 11 11 12 13 13 14 14 14 14 14 14 13 14 15 18 19 20 21 21 20 19 19
10 10 9 9 8 8 7 7 8 8 9 8 8 9 9 9 10 10 10 10 9 9 10 11 11 11 13 12 13 13 13 12 11 12 13 16 15 17 18 19 19 20 19 20 19
9 9 9 9 8 8 7 8 8 6 7 9 9 9 8 9 9 9 9 9 10 8 7 7 9 9 12 12 13 13 13 13 12 13 14 14 14 17 18 19 19 18 18 19 19
9 9 8 8 8 7 7 8 7 7 8 8 8 8 8 9 8 8 9 8 9 8 7 7 7 7 9 12 13 13 12 14 13 13 15 15 16 18 18 19 20 20 19 19 18
9 8 8 7 7 7 7 7 7 7 8 8 6 7 7 8 7 8 8 9 9 9 8 8 7 9 6 12 13 13 14 12 13 12 13 15 15 17 18 18 18 18 18 17 17
8 7 7 7 7 7 6 6 6 7 7 7 7 7 7 6 7 7 8 9 9 9 9 8 7 9 8 8 11 12 12 13 14 14 14 15 17 17 18 16 16 17 17 18 17
7 8 7 7 6 1 5 5 5 6 6 7 7 7 7 7 6 7 7 8 9 8 8 8 6 8 9 10 11 11 11 12 12 13 13 14 15 17 16 16 15 16 17 17 16
3 5 6 7 5 4 4 5 5 6 7 6 6 7 6 6 5 6 7 8 8 8 8 8 7 7 10 10 10 10 11 11 11 11 12 13 15 19 17 18 17 16 16 17 16
4 5 5 5 3 3 3 5 5 6 6 6 6 6 5 5 7 5 6 8 7 7 7 7 6 7 7 9 9 9 9 10 10 11 12 13 14 16 16 16 16 15 15 17 17
4 2 1 4 4 3 3 4 4 5 6 6 5 6 6 4 5 5 7 7 7 7 7 7 6 7 8 8 8 8 9 10 10 10 10 13 14 15 15 15 15 15 16 17 17
2 2 1 1 1 3 3 4 5 5 4 5 5 6 5 4 5 4 5 5 4 6 6 6 7 8 8 9 8 8 9 10 10 10 10 11 11 13 13 13 14 15 15 16 17
2 1 -0 2 2 3 4 4 5 4 5 5 5 4 4 6 6 6 5 5 4 4 5 4 5 6 7 8 8 8 10 10 11 11 11 11 12 13 13 14 14 14 14 15 15
Height
1524 1522 1519 1518 1516 1514 1512 1510 1508 1505 1502 1501 1498 1498 1495 1494 1492 1490 1489 1491 1489 1491 1492 1494 1498 1499 1500 1502 1503 1504 1504 1497 1493 1496 1489 1488 1486 1485 1485 1485 1484 1482 1483 1484 1481
1524 1521 1519 1516 1514 1512 1510 1508 1506 1504 1502 1499 1497 1495 1493 1491 1487 1484 1485 1483 1484 1487 1488 1492 1493 1497 1500 1498 1499 1496 1492 1487 1482 1485 1485 1485 1486 1484 1484 1485 1482 1481 1481 1482 1484
1524 1522 1519 1516 1513 1511 1508 1506 1505 1503 1500 1497 1494 1493 1492 1488 1484 1482 1483 1483 1483 1484 1485 1485 1489 1493 1495 1494 1491 1486 1478 1478 1478 1480 1484 1484 1483 1483 1483 1481 1480 1479 1478 1481 1483
1524 1521 1518 1515 1512 1509 1507 1505 1502 1500 1498 1496 1494 1493 1489 1486 1487 1483 1483 1482 1481 1482 1482 1483 1484 1489 1487 1484 1485 1480 1475 1476 1477 1481 1481 1481 1480 1478 1479 1475 1478 1478 1476 1478 1479
1523 1520 1517 1514 1511 1509 1506 1504 1502 1499 1496 1494 1493 1492 1490 1487 1485 1485 1483 1481 1479 1480 1482 1483 1483 1485 1478 1479 1482 1474 1469 1474 1478 1478 1477 1479 1472 1474 1471 1471 1472 1473 1472 1471 1473
1522 1519 1516 1513 1510 1508 1506 1503 1501 1499 1495 1492 1491 1488 1488 1488 1484 1482 1481 1480 1479 1478 1478 1479 1481 1481 1478 1475 1473 1464 1469 1469 1473 1474 1475 1475 1461 1471 1466 1467 1461 1465 1464 1466 1467
1521 1518 1515 1512 1509 1507 1505 1502 1500 1497 1494 1493 1490 1487 1486 1486 1482 1481 1479 1477 1476 1475 1474 1475 1478 1479 1475 1472 1469 1467 1467 1466 1466 1470 1469 1472 1461 1442 1460 1464 1463 1461 1460 1458 1460
1520 1517 1513 1510 1508 1505 1503 1500 1498 1495 1492 1491 1489 1487 1483 1482 1480 1479 1477 1474 1473 1472 1471 1470 1472 1473 1474 1470 1465 1465 1467 1464 1453 1463 1460 1468 1452 1431 1453 1454 1447 1451 1448 1447 1449
1518 1515 1512 1509 1506 1504 1501 1498 1495 1493 1491 1490 1488 1488 1483 1481 1479 1476 1474 1472 1469 1468 1467 1467 1469 1471 1471 1470 1467 1459 1451 1449 1451 1450 1456 1460 1434 1440 1447 1448 1441 1442 1441 1441 1442
1517 1513 1511 1508 1505 1502 1500 1496 1492 1491 1491 1489 1488 1489 1484 1482 1478 1474 1473 1469 1468 1467 1465 1466 1467 1463 1463 1460 1449 1449 1449 1444 1444 1445 1450 1449 1432 1440 1444 1443 1439 1438 1436 1436 1436
1516 1513 1509 1507 1505 1502 1498 1495 1496 1495 1490 1489 1489 1489 1484 1482 1476 1473 1470 1467 1466 1466 1462 1464 1462 1453 1455 1456 1452 1451 1448 1446 1442 1442 1443 1439 1431 1434 1439 1438 1433 1432 1431 1429 1429
1515 1511 1508 1506 1504 1502 1499 1498 1499 1501 1494 1486 1485 1484 1482 1481 1476 1471 1469 1468 1466 1461 1460 1461 1457 1456 1458 1455 1454 1454 1455 1453 1448 1445 1445 1437 1434 1433 1436 1431 1429 1426 1424 1423 1423
1512 1509 1506 1504 1503 1502 1500 1500 1499 1499 1498 1486 1484 1482 1482 1480 1474 1469 1468 1466 1463 1461 1458 1455 1451 1452 1452 1451 1450 1448 1449 1449 1451 1444 1441 1442 1434 1428 1424 1425 1423 1420 1419 1419 1418
1510 1506 1504 1502 1503 1501 1499 1498 1496 1495 1494 1487 1483 1482 1480 1474 1472 1468 1465 1465 1460 1456 1455 1449 1445 1449 1447 1448 1446 1445 1444 1443 1446 1448 1444 1438 1431 1416 1414 1413 1414 1414 1413 1411 1410
1507 1503 1500 1498 1500 1500 1500 1496 1493 1495 1484 1486 1482 1481 1479 1477 1472 1465 1463 1460 1456 1453 1456 1442 1444 1444 1443 1440 1441 1441 1442 1442 1443 1444 1446 1440 1445 1403 1407 1403 1403 1406 1405 1403 1402
1504 1499 1497 1498 1498 1498 1496 1493 1494 1492 1486 1483 1482 1480 1476 1472 1469 1464 1462 1460 1454 1449 1447 1441 1441 1440 1435 1436 1434 1435 1436 1439 1442 1443 1444 1439 1444 1395 1400 1395 1395 1398 1399 1399 1396
1502 1499 1497 1498 1498 1496 1494 1493 1492 1486 1488 1485 1483 1479 1476 1472 1467 1465 1461 1456 1455 1451 1442 1437 1432 1432 1433 1433 1432 1433 1433 1437 1444 1440 1432 1425 1436 1401 1393 1393 1394 1397 1396 1394 1391
1500 1498 1497 1497 1497 1495 1493 1493 1489 1494 1489 1485 1483 1478 1476 1472 1467 1465 1461 1456 1453 1454 1455 1445 1434 1436 1426 1424 1426 1427 1426 1418 1425 1421 1420 1426 1420 1399 1392 1391 1391 1393 1393 1391 1388
1499 1498 1497 1497 1496 1494 1494 1491 1492 1491 1489 1487 1481 1477 1475 1474 1476 1469 1462 1459 1454 1455 1457 1449 1441 1437 1430 1422 1421 1423 1426 1419 1421 1418 1411 1408 1400 1394 1391 1387 1386 1387 1389 1388 1383
1498 1497 1497 1496 1494 1493 1493 1494 1492 1491 1490 1487 1486 1480 1476 1473 1474 1471 1463 1456 1454 1454 1455 1449 1442 1431 1434 1419 1417 1416 1416 1424 1421 1419 1415 1400 1399 1389 1382 1387 1390 1390 1390 1388 1382
1497 1496 1497 1495 1494 1494 1495 1495 1494 1491 1490 1487 1483 1480 1478 1477 1475 1471 1463 1455 1454 1453 1453 1448 1446 1432 1436 1429 1417 1417 1416 1416 1411 1408 1404 1397 1384 1377 1380 1389 1393 1392 1388 1384 1378
1498 1497 1496 1494 1496 1500 1497 1497 1495 1490 1489 1486 1484 1480 1478 1476 1474 1471 1462 1457 1455 1455 1450 1449 1448 1435 1429 1424 1424 1422 1420 1419 1411 1411 1407 1407 1395 1380 1384 1387 1390 1387 1384 1381 1379
1501 1498 1496 1494 1496 1498 1499 1497 1495 1490 1488 1486 1482 1481 1479 1477 1477 1468 1461 1457 1455 1453 1450 1450 1445 1436 1420 1423 1424 1421 1420 1419 1418 1415 1407 1404 1392 1375 1382 1381 1385 1385 1383 1381 1379
1506 1502 1498 1497 1500 1501 1500 1494 1491 1489 1485 1485 1482 1479 1478 1477 1471 1465 1459 1455 1454 1453 1451 1451 1445 1440 1433 1426 1428 1426 1423 1421 1421 1412 1403 1395 1397 1383 1384 1382 1381 1385 1385 1381 1379
1509 1509 1508 1501 1500 1502 1501 1495 1492 1489 1486 1483 1479 1477 1476 1473 1467 1460 1454 1452 1451 1449 1447 1447 1438 1434 1429 1429 1427 1422 1419 1417 1415 1411 1408 1392 1392 1387 1386 1389 1385 1382 1382 1380 1378
1512 1512 1509 1505 1502 1500 1497 1492 1488 1488 1489 1481 1479 1474 1473 1470 1465 1457 1454 1451 1450 1445 1445 1443 1434 1429 1423 1422 1421 1416 1411 1409 1404 1404 1399 1398 1396 1394 1389 1390 1385 1381 1381 1377 1376
1512 1510 1509 1505 1502 1500 1494 1491 1489 1490 1482 1480 1476 1473 1467 1459 1455 1450 1447 1443 1446 1445 1442 1442 1438 1431 1420 1416 1418 1411 1395 1393 1391 1389 1389 1387 1388 1390 1382 1382 1383 1381 1380 1376 1374
Wind_Speed
14 13 14 13 13 13 12 12 13 14 15 16 18 19 19 21 20 20 20 14 17 19 19 18 13 4 19 11 13 12 7 13 19 14 10 3 6 4 3 6 3 2 5 11 3
16 16 16 15 15 15 14 12 12 14 16 17 18 19 20 21 22 19 9 13 16 11 18 21 17 13 9 13 13 12 11 20 11 15 8 15 8 5 4 5 4 5 8 3 8
17 18 19 19 19 17 15 13 13 13 14 17 19 20 19 19 16 4 4 4 8 13 8 12 18 13 18 11 17 14 20 20 19 22 17 24 20 11 10 12 15 9 3 7 6
19 19 20 20 20 19 17 16 16 16 15 14 14 17 19 16 5 5 11 15 17 16 10 5 14 13 12 18 21 15 25 28 18 15 10 17 20 15 19 30 18 18 21 24 22
19 19 20 20 18 17 14 16 18 20 20 17 17 15 13 11 7 12 13 16 18 16 9 6 12 15 16 13 22 25 23 18 29 20 17 15 24 22 25 28 26 27 25 28 29
19 19 18 18 16 14 13 15 17 20 17 15 15 14 12 5 12 9 15 11 10 12 10 9 5 13 11 17 21 16 24 26 20 19 22 20 32 23 22 19 25 20 26 27 25
18 18 18 18 15 13 12 13 17 19 13 16 20 15 12 3 14 10 16 13 14 17 18 10 13 10 3 12 15 23 19 13 20 29 17 8 24 36 31 26 33 33 34 31 28
17 17 18 17 16 14 14 15 17 17 14 16 20 12 7 11 18 20 18 13 10 12 13 7 15 9 12 9 11 11 17 22 26 11 11 17 31 34 25 29 36 34 38 33 29
17 16 17 17 16 16 16 18 19 12 9 15 10 9 6 19 19 24 19 16 14 7 8 5 6 9 8 13 10 14 21 26 24 23 15 19 35 27 24 20 25 23 22 23 23
18 15 15 15 15 17 19 18 9 5 8 5 6 6 6 19 25 20 17 17 11 7 1 3 6 9 12 13 20 18 24 21 18 13 22 24 34 23 22 21 24 24 26 28 30
21 17 13 12 13 15 20 11 7 1 9 5 9 9 19 19 21 16 15 13 8 5 4 4 9 17 19 19 21 10 13 19 18 9 21 25 28 24 23 29 30 33 32 34 35
22 19 12 9 9 11 13 8 7 7 9 10 10 12 14 13 10 14 16 3 3 11 6 4 14 14 12 13 17 22 18 10 8 9 8 16 21 16 15 20 26 29 32 34 34
23 19 12 6 6 12 5 8 8 8 4 10 7 6 10 17 7 14 7 4 6 9 9 11 12 9 13 17 17 18 22 20 10 6 12 12 22 23 22 24 29 33 33 35 35
24 22 13 6 3 9 4 11 15 2 2 4 3 0 13 19 5 17 3 11 5 8 9 12 13 8 15 14 19 19 11 15 20 12 13 4 11 16 17 18 19 24 28 33 33
26 22 13 5 3 6 8 12 4 4 4 8 4 6 21 6 12 8 15 6 10 15 7 21 14 16 16 17 15 18 11 9 5 9 11 18 10 16 12 20 19 16 27 30 32
24 18 6 1 3 8 12 9 6 2 3 4 6 14 19 14 10 11 15 11 10 9 11 20 19 17 17 11 13 13 16 21 17 13 15 16 12 23 17 21 18 17 20 17 20
20 8 4 3 4 10 16 3 2 2 4 4 8 12 19 6 13 13 18 11 5 6 10 15 16 15 18 13 9 9 12 9 10 11 17 11 13 23 9 6 1 8 19 20 16
14 2 3 4 6 11 15 1 3 1 4 7 9 18 4 8 12 15 11 10 4 4 6 6 8 13 5 22 17 15 14 7 15 12 15 13 13 9 10 16 15 9 8 14 17
13 3 3 4 7 11 5 0 2 1 5 8 15 5 3 5 9 9 13 7 4 2 5 6 5 10 11 9 18 12 10 16 5 1 8 10 17 16 16 14 12 13 11 18 24
13 4 3 4 9 10 2 2 2 3 8 5 4 3 7 12 9 11 7 4 6 3 1 4 8 1 12 12 13 14 10 9 7 6 8 9 15 9 3 9 9 12 16 22 25
10 1 7 6 9 4 2 3 4 6 7 3 5 8 9 8 7 9 6 13 3 7 8 7 4 4 5 7 3 7 7 8 9 12 4 3 3 4 7 9 8 12 22 25 27
9 1 7 9 2 2 1 6 7 6 3 4 5 8 7 9 9 7 9 6 13 8 13 3 4 7 6 6 6 3 4 7 8 20 11 10 5 6 9 8 13 18 28 28 25
12 5 6 8 2 2 4 5 5 5 7 4 4 2 3 4 6 8 10 5 13 9 3 7 1 7 6 5 4 3 3 5 6 6 15 14 9 10 8 14 18 23 29 31 30
8 3 5 7 4 2 4 3 5 7 11 4 9 10 5 5 12 9 14 10 12 13 18 15 4 8 9 8 7 9 11 10 6 9 14 19 20 24 22 23 23 25 27 31 32
8 3 3 4 2 8 5 4 8 5 4 10 3 6 8 6 15 15 12 13 18 25 10 4 7 11 15 15 15 17 18 17 16 18 13 18 20 22 19 17 23 29 30 32 31
7 5 4 7 9 7 3 3 8 4 5 9 7 13 16 16 16 22 18 16 6 5 3 6 7 8 15 14 15 20 20 20 23 21 24 25 24 19 27 31 30 30 28 29 25
10 4 2 4 4 4 2 3 7 15 11 13 15 15 16 18 20 29 32 32 18 6 5 3 3 3 7 6 5 11 21 22 21 21 17 22 21 18 24 22 22 28 26 28 25
Wind_Direction
7 2 360 358 349 344 343 341 335 330 328 324 324 322 322 321 318 311 301 270 257 256 246 252 236 221 205 208 199 195 228 238 233 221 231 260 239 224 242 257 260 206 113 38 39
6 3 359 353 348 346 343 338 332 332 328 326 326 327 332 330 324 313 305 273 265 278 262 243 236 221 208 210 203 196 221 230 227 224 232 242 238 272 298 272 266 222 186 333 42
5 2 359 355 352 350 346 344 343 339 331 330 333 338 343 342 330 5 30 79 342 334 327 244 228 207 221 210 207 211 231 228 235 228 233 254 258 255 261 265 253 255 269 288 236
1 359 358 354 353 353 351 352 350 345 341 338 341 346 344 339 351 340 316 301 298 309 312 286 219 208 223 219 216 234 232 237 243 237 231 245 264 250 243 252 268 274 282 285 281
0 357 356 354 355 356 2 354 346 342 335 332 340 344 337 322 307 337 307 291 298 290 291 256 219 218 226 224 226 233 233 240 244 241 243 268 262 264 259 261 266 274 277 276 275
360 356 354 353 352 356 360 350 344 349 346 353 351 337 330 316 359 15 15 9 339 353 320 253 234 236 254 242 224 236 236 241 242 236 243 248 265 258 250 261 269 272 269 268 269
358 354 352 354 354 353 351 353 345 348 350 346 343 330 312 319 359 336 341 333 325 342 350 278 242 240 273 251 251 251 253 242 234 233 240 227 276 254 253 252 258 263 264 266 269
355 353 352 354 354 354 349 345 340 336 327 338 337 331 284 348 354 350 342 316 302 324 339 296 219 260 234 289 257 232 235 243 233 203 227 195 252 258 262 261 261 262 269 276 274
355 352 353 353 355 355 348 341 330 322 329 325 330 334 320 341 340 337 341 344 307 289 332 245 203 223 221 231 246 224 234 228 239 218 216 197 245 252 256 263 262 264 269 271 274
353 352 352 353 353 352 347 345 347 3 337 333 334 325 347 342 339 341 334 324 301 284 78 179 198 222 219 208 221 231 235 247 240 222 218 223 246 250 246 264 262 266 271 274 274
352 350 349 347 349 346 345 3 13 309 326 288 291 273 289 325 335 333 348 315 274 240 245 211 225 224 231 233 248 255 280 251 248 223 223 228 246 248 246 252 260 263 266 268 269
347 345 341 339 357 353 345 39 39 332 312 294 298 281 327 331 290 336 339 322 277 257 174 221 251 263 255 251 242 247 250 258 265 243 244 247 256 257 257 255 258 264 265 268 274
343 343 336 307 327 353 357 9 344 316 253 295 300 296 332 325 286 324 325 323 268 260 244 246 266 284 241 243 242 237 240 236 252 287 270 271 269 264 255 252 258 259 263 267 267
341 334 331 301 303 341 357 343 329 250 272 290 329 169 342 331 248 326 311 323 243 267 257 246 251 240 244 247 239 242 225 234 235 246 246 227 276 258 256 249 245 257 261 264 268
339 331 320 289 283 345 336 330 323 162 302 338 312 322 337 333 303 339 327 316 275 272 267 269 276 250 245 232 225 242 222 203 206 240 265 250 275 268 250 260 262 264 263 268 269
342 340 336 316 354 345 341 336 143 219 263 344 326 336 339 337 319 311 330 317 279 269 252 264 268 251 227 250 213 229 221 222 239 247 249 241 236 276 259 263 267 262 266 285 291
346 4 56 74 352 343 342 143 246 223 350 342 329 332 328 308 327 328 327 325 320 299 291 304 269 237 231 230 222 215 178 182 209 214 237 216 214 244 14 151 166 303 297 312 316
350 20 90 32 348 340 340 222 244 0 294 318 325 316 305 351 333 330 317 324 63 27 291 316 295 351 207 223 223 222 206 210 213 209 226 192 228 236 234 265 273 292 293 318 328
353 129 93 16 354 344 338 76 213 241 309 317 321 313 310 331 328 328 317 295 339 25 349 307 278 281 290 265 218 195 215 233 299 311 220 195 245 270 262 278 284 303 321 345 343
356 151 24 349 346 345 59 291 259 240 320 300 288 266 294 321 325 335 314 284 327 8 280 298 295 230 294 292 219 211 205 200 210 220 216 210 236 239 175 153 51 22 1 340 337
353 151 3 354 337 38 58 289 296 298 334 271 276 283 292 308 309 307 270 292 286 340 321 292 263 313 320 343 310 182 206 224 241 237 267 247 176 225 193 89 33 3 356 347 342
356 298 351 355 41 48 357 320 311 292 314 281 263 272 271 305 295 275 264 274 318 326 321 329 295 291 272 197 250 309 281 277 235 222 242 274 280 92 114 58 6 352 349 347 345
345 311 344 359 55 1 325 299 271 283 318 300 294 279 311 278 303 256 281 287 335 309 304 352 290 316 311 148 162 268 294 259 264 269 251 241 235 232 286 303 334 338 338 338 342
348 334 353 51 82 20 331 328 320 318 300 270 296 287 279 278 287 280 282 295 300 296 293 319 246 253 268 300 314 293 291 284 285 257 258 246 260 272 287 299 313 321 327 328 332
5 32 357 320 358 320 303 281 287 307 292 315 265 238 313 282 303 270 270 299 290 288 278 261 259 242 255 268 283 280 280 279 268 257 256 262 252 265 280 300 304 308 311 315 319
9 356 339 292 299 300 277 250 291 330 310 296 260 295 297 291 284 287 291 283 246 302 241 234 259 279 267 264 259 269 270 266 258 259 258 261 266 273 280 281 282 291 301 303 306
340 308 271 284 305 309 281 316 304 321 294 250 296 297 286 287 294 286 281 277 258 239 247 241 234 271 263 247 285 272 251 244 254 253 257 252 258 259 270 271 279 289 294 292 296